This demonstration page uses our WeatherBlox Daily Observations layout. Learn more.

Left ArrowRight Arrow

39.51506, -84.39828

Hourly Observations for January 17, 2021

Temp ( °F °C ) Dew Point ( °F °C ) Humidity (%) Winds ( mph kmh ) Pressure ( in mb ) Visibility ( mi km ) Precip ( " mm )
12:15 am 00:15 Cloudy 35 1.4 33 0.6 94 94 WSW 10 17 29.79 1009 10 16 N/A
12:35 am 00:35 Cloudy 34 1.3 33 0.7 96 96 WSW 10 17 29.79 1009 10 16 N/A
12:55 am 00:55 Cloudy 34 1.3 33 0.7 96 96 WSW 13 20 29.79 1009 10 16 N/A
1:15 am 01:15 Cloudy 35 1.4 33 0.6 94 94 WSW 14 22 29.80 1009 10 16 N/A
1:35 am 01:35 Cloudy with Light Rain 34 1.2 33 0.6 96 96 WSW 10 17 29.80 1009 7 11 N/A
1:55 am 01:55 Cloudy with Light Rain 34 1.2 33 0.6 96 96 WSW 12 19 29.80 1009 7 11 N/A
2:15 am 02:15 Cloudy with Light Rain 34 1.2 33 0.7 97 97 WSW 9 15 29.80 1009 10 16 N/A
2:35 am 02:35 Cloudy 34 1.3 33 0.5 94 94 WSW 12 19 29.81 1010 10 16 N/A
2:55 am 02:55 Cloudy 34 1.3 33 0.6 95 95 SW 8 13 29.81 1010 10 16 N/A
3:15 am 03:15 Cloudy with Light Rain 34 1.3 33 0.4 94 94 WSW 14 22 29.82 1010 10 16 N/A
3:35 am 03:35 Cloudy with Light Snow 34 1.2 33 0.4 94 94 SW 10 17 29.82 1010 10 16 N/A
3:55 am 03:55 Cloudy with Light Snow 34 1.1 33 0.3 94 94 SW 7 11 29.82 1010 10 16 N/A
4:15 am 04:15 Cloudy with Light Rain 34 1.1 32 0.2 94 94 SW 10 17 29.81 1010 10 16 N/A
4:35 am 04:35 Cloudy with Light Snow 34 1 32 0.2 94 94 SW 9 15 29.81 1010 10 16 N/A
4:55 am 04:55 Cloudy with Light Rain 34 1.1 32 0.1 93 93 SW 9 15 29.80 1009 10 16 N/A
5:15 am 05:15 Cloudy with Light Snow 34 1 32 0.1 94 94 SW 7 11 29.80 1009 10 16 N/A
5:35 am 05:35 Cloudy with Light Snow 34 1 32 undefined 93 93 SW 8 13 29.80 1009 10 16 N/A
5:55 am 05:55 Cloudy with Light Snow 34 0.9 32 undefined 94 94 SW 8 13 29.81 1010 10 16 N/A
6:15 am 06:15 Cloudy with Light Snow 34 1 32 -0.2 92 92 SW 7 11 29.81 1010 10 16 N/A
6:35 am 06:35 Cloudy with Light Rain 34 0.9 32 -0.2 92 92 SW 7 11 29.81 1010 10 16 N/A
6:55 am 06:55 Cloudy with Light Rain 34 1 31 -0.3 91 91 SW 6 9 29.82 1010 10 16 N/A
7:15 am 07:15 Cloudy with Light Snow 34 0.9 31 -0.3 92 92 SW 6 9 29.81 1010 10 16 N/A
7:35 am 07:35 Cloudy with Light Snow 34 0.9 32 -0.2 92 92 SW 7 11 29.81 1010 10 16 N/A
7:55 am 07:55 Cloudy 33 0.8 32 -0.1 94 94 SW 7 11 29.82 1010 10 16 N/A
8:15 am 08:15 Cloudy 33 0.8 32 -0.1 94 94 SW 6 9 29.82 1010 10 16 N/A
8:35 am 08:35 Cloudy 34 0.9 32 undefined 94 94 SW 8 13 29.83 1010 10 16 N/A
8:55 am 08:55 Cloudy with Light Snow 34 1 32 undefined 93 93 SW 10 17 29.83 1010 10 16 N/A
9:15 am 09:15 Cloudy with Light Snow 34 1 32 undefined 93 93 SSW 8 13 29.83 1010 10 16 N/A
9:35 am 09:35 Cloudy with Light Snow 34 1.1 32 undefined 92 92 SSW 9 15 29.83 1010 7 11 N/A
9:55 am 09:55 Cloudy with Light Snow 34 0.9 32 0.2 95 95 SSW 9 15 29.83 1010 4 6 N/A
10:15 am 10:15 Cloudy with Light Snow 34 0.9 33 0.4 97 97 SSW 8 13 29.83 1010 5 8 N/A
10:35 am 10:35 Cloudy with Light Snow 34 0.9 33 0.5 97 97 SSW 8 13 29.83 1010 3 5 N/A
10:55 am 10:55 Cloudy with Light Snow 34 1.1 33 0.7 97 97 SSW 8 13 29.82 1010 7 11 N/A
11:15 am 11:15 Cloudy with Light Snow 34 1.2 33 0.7 97 97 SW 10 17 29.82 1010 4 6 N/A
11:35 am 11:35 Cloudy with Light Snow 34 1.1 33 0.8 98 98 SSW 10 17 29.81 1010 4 6 N/A
11:55 am 11:55 Cloudy with Light Snow 34 1.2 33 0.7 97 97 SW 9 15 29.80 1009 7 11 N/A
12:15 pm 12:15 Cloudy with Light Snow 34 1.3 33 0.6 95 95 SW 9 15 29.79 1009 5 8 N/A
12:35 pm 12:35 Cloudy with Light Snow 34 1 33 0.7 98 98 SW 8 13 29.79 1009 2 3 N/A
12:55 pm 12:55 Cloudy with Light Snow 34 1 34 0.9 99 99 SW 8 13 29.78 1009 3 4 N/A
1:15 pm 13:15 Cloudy with Light Snow 34 1.2 34 1.1 99 99 SW 8 13 29.77 1008 3 4 N/A
1:35 pm 13:35 Cloudy with Light Snow 35 1.4 34 1.2 99 99 SW 7 11 29.77 1008 3 4 N/A
1:55 pm 13:55 Cloudy with Light Rain 35 1.4 34 1.3 99 99 SSW 6 9 29.76 1008 4 6 N/A
2:15 pm 14:15 Cloudy with Light Rain 35 1.8 35 1.7 99 99 SSW 9 15 29.75 1007 5 8 0.01 0.25
2:35 pm 14:35 Cloudy with Light Rain 35 1.6 34 1.2 97 97 SW 10 17 29.75 1007 4 6 0.01 0.25
2:55 pm 14:55 Cloudy with Light Rain 35 1.5 34 1 97 97 SW 14 22 29.75 1007 5 8 0.01 0.25
3:15 pm 15:15 Cloudy with Light Rain 35 1.7 33 0.6 93 93 SW 15 24 29.76 1008 10 16 N/A
3:35 pm 15:35 Cloudy with Light Snow 35 1.4 33 0.7 95 95 WSW 12 19 29.76 1008 4 6 N/A
3:55 pm 15:55 Cloudy with Light Rain 34 1.3 33 0.8 97 97 SSW 13 20 29.76 1008 7 11 N/A
4:15 pm 16:15 Cloudy with Light Rain 34 1.2 33 0.8 97 97 SW 8 13 29.77 1008 10 16 N/A
4:35 pm 16:35 Cloudy with Light Rain 34 1.1 33 0.6 97 97 SW 10 17 29.77 1008 10 16 N/A
4:55 pm 16:55 Cloudy 34 1.3 33 0.6 95 95 SW 8 13 29.78 1009 10 16 N/A
5:15 pm 17:15 Cloudy 34 1.3 33 0.4 94 94 WSW 10 17 29.79 1009 10 16 N/A
5:35 pm 17:35 Cloudy with Light Snow 34 1.1 31 -0.4 90 90 WSW 8 13 29.79 1009 10 16 N/A
5:55 pm 17:55 Cloudy with Light Snow 34 0.9 31 -0.4 91 91 WSW 7 11 29.79 1009 10 16 N/A
6:15 pm 18:15 Cloudy 34 0.9 31 -0.4 91 91 WSW 7 11 29.80 1009 10 16 N/A
6:35 pm 18:35 Cloudy with Light Snow 33 0.7 31 -0.5 92 92 WSW 7 11 29.80 1009 10 16 N/A
6:55 pm 18:55 Cloudy with Light Snow 33 0.6 31 -0.3 94 94 WSW 7 11 29.80 1009 10 16 N/A
7:15 pm 19:15 Cloudy with Light Snow 33 0.6 32 -0.2 94 94 W 7 11 29.81 1010 10 16 N/A
7:35 pm 19:35 Cloudy with Light Snow 33 0.3 31 -0.4 95 95 W 5 7 29.81 1010 3 5 N/A
7:55 pm 19:55 Cloudy with Light Snow 32 0.2 31 -0.3 96 96 W 6 9 29.81 1010 10 16 N/A
8:15 pm 20:15 Cloudy with Light Snow 33 0.3 31 -0.3 96 96 W 12 19 29.82 1010 7 11 N/A
8:35 pm 20:35 Cloudy with Light Snow 31 -0.5 31 -0.8 98 98 WSW 6 9 29.83 1010 2 3 N/A
8:55 pm 20:55 Cloudy with Light Snow 31 -0.5 30 -1.2 95 95 WSW 7 11 29.83 1010 4 6 N/A
9:15 pm 21:15 Cloudy with Light Snow 31 -0.6 30 -1.1 96 96 SW 5 7 29.83 1010 7 11 N/A
9:35 pm 21:35 Cloudy with Light Snow 31 -0.5 30 -1.2 95 95 WSW 6 9 29.83 1010 10 16 N/A
9:55 pm 21:55 Cloudy with Light Snow 31 -0.4 30 -1.3 94 94 SW 7 11 29.83 1010 7 11 N/A
10:15 pm 22:15 Cloudy 31 -0.5 30 -1.2 95 95 SW 8 13 29.83 1010 10 16 N/A
10:35 pm 22:35 Cloudy with Light Snow 31 -0.4 30 -1 96 96 SW 7 11 29.83 1010 5 8 N/A
10:55 pm 22:55 Cloudy with Light Snow 31 -0.7 29 -1.5 94 94 WSW 7 11 29.83 1010 7 11 N/A
11:15 pm 23:15 Cloudy 31 -0.8 29 -1.9 92 92 WSW 7 11 29.84 1010 10 16 N/A
11:35 pm 23:35 Cloudy 30 -0.9 29 -1.8 94 94 SW 7 11 29.84 1010 10 16 N/A
11:55 pm 23:55 Cloudy 30 -1 28 -2 93 93 SW 6 9 29.84 1010 10 16 N/A

Powered by AerisWeather